Regional Weather Roundup
Issued by NWS Goodland, KS

Home | Current Version | Previous Version | Text Only | Print | Product List | Glossary Off
Versions: 1 2 3 4 5 6 7 8 9 10 11 12 13 14 15 16 17 18 19 20 21 22 23 24 25 26 27 28 29 30 31 32 33 34 35 36 37 38 39 40 41 42 43 44 45 46 47 48 49 50

000
ASUS43 KGLD 230308
RWRGLD

GOODLAND FORECAST AREA HOURLY WEATHER ROUNDUP
NATIONAL WEATHER SERVICE GOODLAND KS
800 PM MST WED FEB 22 2017

...OFFICIAL OBSERVATIONS...

CITY           SKY/WX    TMP DP  RH WIND       PRES   REMARKS
GOODLAND KS    CLEAR     41  21  44 E6        29.71F
HILL CITY KS   CLEAR     44  24  45 CALM      29.72R
IMPERIAL NEB   CLEAR     39  21  48 NE9       29.75F
MCCOOK NEB     CLEAR     45  24  43 NE9       29.73F
AKRON CO       CLEAR     39  15  37 NE14      29.74F
BURLINGTON CO  CLEAR     44  21  40 E12       29.72F
LIMON CO       CLEAR     44  19  36 E12G25    29.70F
$$

...UNOFFICIAL OBSERVATIONS...

CITY           SKY/WX    TMP DP  RH WIND       PRES   REMARKS
LENORA KS        N/A     52  32  46 CALM        N/A
NORTON KS      CLEAR     43  18  36 N3        29.72R
SHARON SPRINGS   N/A     47  24  40 E8          N/A
TRENTON NEB      N/A     41  32  70 N6          N/A
KIT CARSON CO    N/A     48  24  39 MISG        N/A
YUMA CO        FAIR      39  18  41 N10       29.74F
$$



USA.gov is the U.S. government's official web portal to all federal, state and local government web resources and services.